Hourly Weather Kita

Today, 2 August, Monday

Time Temperature Precipitation Wind Pressure Humidity
00:00 +24°C° 0.2 mm 1 mps 729 mmHg 96%
01:00 +24°C° 0.2 mm 1 mps 729 mmHg 96%
02:00 +23°C° 0.2 mm 1 mps 729 mmHg 97%
03:00 +23°C° 0 mm 1 mps 729 mmHg 97%
04:00 +23°C° 0 mm 1 mps 729 mmHg 97%
05:00 +23°C° 0 mm 1 mps 730 mmHg 97%
06:00 +24°C° 0 mm 1 mps 730 mmHg 93%
07:00 +25°C° 0 mm 1 mps 731 mmHg 89%
08:00 +26°C° 0 mm 2 mps 731 mmHg 85%
09:00 +27°C° 0.7 mm 1 mps 731 mmHg 81%
10:00 +28°C° 0.7 mm 1 mps 731 mmHg 78%
11:00 +29°C° 0.7 mm 1 mps 731 mmHg 74%
12:00 +30°C° 1.1 mm 1 mps 730 mmHg 73%
13:00 +30°C° 1.1 mm 1 mps 730 mmHg 72%
14:00 +30°C° 1.1 mm 1 mps 729 mmHg 72%
15:00 +30°C° 0.6 mm 1 mps 729 mmHg 75%
16:00 +29°C° 0.6 mm 1 mps 729 mmHg 79%
17:00 +27°C° 0.6 mm 0 mps 728 mmHg 82%
18:00 +26°C° 0.7 mm 0 mps 729 mmHg 85%
19:00 +27°C° 0.7 mm 1 mps 729 mmHg 87%
20:00 +26°C° 0.7 mm 1 mps 730 mmHg 90%
21:00 +25°C° 0.1 mm 1 mps 730 mmHg 90%
22:00 +25°C° 0.1 mm 1 mps 730 mmHg 91%
23:00 +25°C° 0.1 mm 1 mps 730 mmHg 91%

Tomorrow, 3 August, Tuesday

Time Temperature Precipitation Wind Pressure Humidity
00:00 +25°C° 0.2 mm 1 mps 730 mmHg 92%
01:00 +24°C° 0.2 mm 1 mps 730 mmHg 93%
02:00 +24°C° 0.2 mm 1 mps 730 mmHg 93%
03:00 +24°C° 0.2 mm 1 mps 730 mmHg 94%
04:00 +24°C° 0.2 mm 1 mps 730 mmHg 96%
05:00 +24°C° 0.2 mm 1 mps 730 mmHg 97%
06:00 +24°C° 0 mm 1 mps 730 mmHg 94%
07:00 +25°C° 0 mm 2 mps 731 mmHg 90%
08:00 +26°C° 0 mm 2 mps 731 mmHg 87%
09:00 +27°C° 0.4 mm 2 mps 731 mmHg 82%
10:00 +28°C° 0.4 mm 2 mps 731 mmHg 77%
11:00 +29°C° 0.4 mm 2 mps 731 mmHg 72%
12:00 +30°C° 0.5 mm 2 mps 730 mmHg 69%
13:00 +31°C° 0.5 mm 2 mps 730 mmHg 67%
14:00 +31°C° 0.5 mm 2 mps 729 mmHg 64%
15:00 +30°C° 0.8 mm 2 mps 729 mmHg 71%
16:00 +29°C° 0.8 mm 1 mps 729 mmHg 78%
17:00 +28°C° 0.8 mm 1 mps 729 mmHg 85%
18:00 +27°C° 0.2 mm 1 mps 729 mmHg 87%
19:00 +26°C° 0.2 mm 1 mps 729 mmHg 89%
20:00 +25°C° 0.2 mm 1 mps 730 mmHg 91%
21:00 +25°C° 0 mm 1 mps 730 mmHg 92%
22:00 +25°C° 0 mm 1 mps 730 mmHg 93%
23:00 +25°C° 0 mm 1 mps 730 mmHg 94%

Day after tomorrow, 4 August, Wednesday

Time Temperature Precipitation Wind Pressure Humidity
00:00 +25°C° 0 mm 1 mps 729 mmHg 94%
01:00 +25°C° 0 mm 1 mps 729 mmHg 94%
02:00 +24°C° 0 mm 1 mps 729 mmHg 95%
03:00 +24°C° 0.3 mm 1 mps 729 mmHg 95%
04:00 +24°C° 0.3 mm 1 mps 729 mmHg 95%
05:00 +24°C° 0.3 mm 1 mps 729 mmHg 96%
06:00 +24°C° 2.4 mm 1 mps 730 mmHg 96%
07:00 +24°C° 2.4 mm 2 mps 730 mmHg 96%
08:00 +25°C° 2.4 mm 2 mps 730 mmHg 95%
09:00 +25°C° 0 mm 2 mps 731 mmHg 93%
10:00 +26°C° 0 mm 2 mps 731 mmHg 91%
11:00 +26°C° 0 mm 2 mps 731 mmHg 88%
12:00 +27°C° 0.7 mm 2 mps 730 mmHg 87%
13:00 +27°C° 0.7 mm 2 mps 730 mmHg 85%
14:00 +28°C° 0.7 mm 2 mps 729 mmHg 84%
15:00 +27°C° 0.7 mm 2 mps 729 mmHg 86%
16:00 +27°C° 0.7 mm 2 mps 729 mmHg 89%
17:00 +26°C° 0.7 mm 1 mps 729 mmHg 91%
18:00 +26°C° 0 mm 1 mps 729 mmHg 93%
19:00 +25°C° 0 mm 1 mps 730 mmHg 95%
20:00 +24°C° 0 mm 1 mps 730 mmHg 96%
21:00 +24°C° 0 mm 1 mps 730 mmHg 97%
22:00 +24°C° 0 mm 1 mps 730 mmHg 97%
23:00 +24°C° 0 mm 1 mps 731 mmHg 98%

5 August, Thursday

Time Temperature Precipitation Wind Pressure Humidity
00:00 +24°C° 0.1 mm 1 mps 730 mmHg 98%
01:00 +24°C° 0.1 mm 1 mps 730 mmHg 98%
02:00 +24°C° 0.1 mm 1 mps 729 mmHg 98%
03:00 +24°C° 0 mm 1 mps 729 mmHg 98%
04:00 +24°C° 0 mm 1 mps 730 mmHg 98%
05:00 +24°C° 0 mm 1 mps 730 mmHg 98%
06:00 +25°C° 0 mm 1 mps 730 mmHg 94%
07:00 +25°C° 0 mm 2 mps 731 mmHg 90%
08:00 +26°C° 0 mm 2 mps 731 mmHg 85%
09:00 +28°C° 0 mm 2 mps 731 mmHg 78%
10:00 +29°C° 0 mm 2 mps 731 mmHg 70%
11:00 +31°C° 0 mm 2 mps 731 mmHg 63%
12:00 +31°C° 0 mm 2 mps 730 mmHg 63%
13:00 +31°C° 0 mm 2 mps 730 mmHg 64%
14:00 +31°C° 0 mm 2 mps 729 mmHg 64%
15:00 +30°C° 0.1 mm 1 mps 729 mmHg 68%
16:00 +30°C° 0.1 mm 1 mps 729 mmHg 72%
17:00 +29°C° 0.1 mm 1 mps 729 mmHg 75%
18:00 +28°C° 0 mm 1 mps 729 mmHg 78%
19:00 +27°C° 0 mm 1 mps 730 mmHg 81%
20:00 +26°C° 0 mm 1 mps 730 mmHg 83%
21:00 +26°C° 0 mm 1 mps 730 mmHg 85%
22:00 +26°C° 0 mm 1 mps 730 mmHg 86%
23:00 +25°C° 0 mm 1 mps 730 mmHg 87%

6 August, Friday

Time Temperature Precipitation Wind Pressure Humidity
00:00 +25°C° 0 mm 1 mps 730 mmHg 89%
01:00 +25°C° 0 mm 1 mps 729 mmHg 91%
02:00 +25°C° 0 mm 1 mps 729 mmHg 92%
03:00 +24°C° 0 mm 1 mps 729 mmHg 93%
04:00 +24°C° 0 mm 1 mps 729 mmHg 93%
05:00 +24°C° 0 mm 1 mps 730 mmHg 94%
06:00 +25°C° 0 mm 1 mps 730 mmHg 88%
07:00 +26°C° 0 mm 2 mps 731 mmHg 83%
08:00 +27°C° 0 mm 2 mps 731 mmHg 77%
09:00 +29°C° 0 mm 2 mps 731 mmHg 72%
10:00 +30°C° 0 mm 3 mps 731 mmHg 68%
11:00 +31°C° 0 mm 3 mps 731 mmHg 63%
12:00 +31°C° 0.1 mm 3 mps 730 mmHg 62%
13:00 +33°C° 0.1 mm 3 mps 730 mmHg 61%
14:00 +33°C° 0.1 mm 3 mps 729 mmHg 60%
15:00 +31°C° 0.3 mm 3 mps 729 mmHg 65%
16:00 +30°C° 0.3 mm 2 mps 729 mmHg 70%
17:00 +29°C° 0.3 mm 2 mps 729 mmHg 76%
18:00 +28°C° 0 mm 2 mps 729 mmHg 79%
19:00 +27°C° 0 mm 2 mps 730 mmHg 82%
20:00 +26°C° 0 mm 1 mps 730 mmHg 86%
21:00 +26°C° 0 mm 2 mps 730 mmHg 86%
22:00 +26°C° 0 mm 2 mps 730 mmHg 86%
23:00 +26°C° 0 mm 2 mps 731 mmHg 86%

7 August, Saturday

Time Temperature Precipitation Wind Pressure Humidity
00:00 +26°C° 0 mm 3 mps 730 mmHg 85%
01:00 +25°C° 0 mm 3 mps 729 mmHg 85%
02:00 +25°C° 0 mm 3 mps 729 mmHg 85%
03:00 +25°C° 0.1 mm 3 mps 729 mmHg 86%
04:00 +25°C° 0.1 mm 3 mps 729 mmHg 87%
05:00 +25°C° 0.1 mm 3 mps 730 mmHg 88%
06:00 +25°C° 0.3 mm 3 mps 730 mmHg 88%
07:00 +25°C° 0.3 mm 3 mps 731 mmHg 89%
08:00 +25°C° 0.3 mm 3 mps 731 mmHg 90%
09:00 +25°C° 0.4 mm 3 mps 731 mmHg 88%
10:00 +25°C° 0.4 mm 3 mps 731 mmHg 87%
11:00 +26°C° 0.4 mm 4 mps 731 mmHg 86%
12:00 +25°C° 0.3 mm 3 mps 731 mmHg 86%
13:00 +25°C° 0.3 mm 3 mps 730 mmHg 86%
14:00 +25°C° 0.3 mm 3 mps 730 mmHg 87%
15:00 +25°C° 0.1 mm 2 mps 730 mmHg 86%
16:00 +26°C° 0.1 mm 2 mps 730 mmHg 86%
17:00 +26°C° 0.1 mm 1 mps 730 mmHg 86%
18:00 +25°C° 0.5 mm 1 mps 730 mmHg 89%
19:00 +24°C° 0.5 mm 1 mps 730 mmHg 92%
20:00 +24°C° 0.5 mm 1 mps 730 mmHg 95%
21:00 +23°C° 0.6 mm 1 mps 730 mmHg 96%
22:00 +23°C° 0.6 mm 1 mps 730 mmHg 96%
23:00 +23°C° 0.6 mm 1 mps 730 mmHg 96%
Show more